Location: Harbor View
(36.2448°N, 86.5797°W)
Time: 09:20:14
(UTC+00:00)

SAR-Lupe-1 - Pass Details

Date: 29 October 2020
Orbit: 480 x 485 km, 98.2° (Epoch: 26 November)

Event Time Altitude Azimuth Distance (km) Brightness Sun altitude
Rises 23:41:49 0° 12° (NNE) 2,549 7.5 -10.5°
Reaches altitude 10° 23:43:53 10° 11° (NNE) 1,666 6.6 -10.9°
Maximum altitude 23:47:28 85° 285° (WNW) 489 4.1 -11.6°
Drops below altitude 10° 23:51:01 10° 195° (SSW) 1,656 7.1 -12.3°
Sets 23:53:04 0° 195° (SSW) 2,532 8.0 -12.7°
